GW3406 Weather Reports


Display with metric or nautical units.
time (UTC)temp
F
wind
direction
speed
MPH
gust
MPH
rain 1hr
in
rain 24hr
in
rain mn
in
humidity
%
barometer
mb
20260508072829 33 153 1.0 1.0 0.00 0.00 0.00 97 1004.6
20260508072325 33 146 1.0 1.0 0.00 0.00 0.00 97 1004.4
20260508071823 34 192 0.0 0.0 0.00 0.00 0.00 97 1004.4
20260508071321 34 252 1.0 1.0 0.00 0.00 0.00 97 1004.3
20260508070818 34 173 0.0 1.0 0.00 0.00 0.00 97 1004.6
20260508070316 34 171 0.0 2.0 0.00 0.00 0.00 96 1004.4
20260508065813 34 196 0.0 1.0 0.00 0.00 0.00 96 1004.3
20260508065311 34 165 1.0 2.0 0.00 0.00 0.00 96 1004.3
20260508064809 34 256 1.0 2.0 0.00 0.00 0.00 96 1004.4
20260508064307 35 177 0.0 0.0 0.00 0.00 0.00 96 1004.6
20260508063804 35 223 0.0 0.0 0.00 0.00 0.00 96 1004.6
20260508063302 35 244 1.0 2.0 0.00 0.00 0.00 96 1004.7
20260508062759 35 155 0.0 0.0 0.00 0.00 0.00 96 1004.7
20260508062256 35 241 1.0 2.0 0.00 0.00 0.00 96 1004.7
20260508061753 35 172 0.0 0.0 0.00 0.00 0.00 96 1004.7
20260508061250 35 161 0.0 1.0 0.00 0.00 0.00 96 1004.8
20260508060747 35 209 0.0 1.0 0.00 0.00 0.00 96 1004.4
20260508060245 35 205 0.0 0.0 0.00 0.00 0.00 96 1004.7
20260508055740 36 186 0.0 0.0 0.00 0.00 0.00 96 1004.4
20260508055237 36 186 1.0 2.0 0.00 0.00 0.00 96 1004.3
20260508054733 35 208 0.0 1.0 0.00 0.00 0.00 96 1004.3
20260508054232 36 252 0.0 1.0 0.00 0.00 0.00 96 1004.4
20260508053728 36 173 0.0 1.0 0.00 0.00 0.00 95 1004.2
20260508053225 36 157 1.0 2.0 0.00 0.00 0.00 95 1004.2
20260508052722 37 260 1.0 1.0 0.00 0.00 0.00 95 1004.1
20260508052219 37 188 0.0 1.0 0.00 0.00 0.00 96 1004.0
20260508051716 37 193 0.0 1.0 0.00 0.00 0.00 96 1004.1
20260508051211 37 220 1.0 2.0 0.00 0.00 0.00 96 1004.0
20260508050708 37 176 0.0 1.0 0.00 0.00 0.00 96 1004.0
20260508050206 37 192 0.0 1.0 0.00 0.00 0.00 96 1003.9
20260508045700 37 165 1.0 1.0 0.00 0.00 0.00 95 1003.9
20260508045159 37 234 0.0 1.0 0.00 0.00 0.00 95 1003.8
20260508044656 37 181 0.0 1.0 0.00 0.00 0.00 95 1003.8
20260508044152 38 222 0.0 0.0 0.00 0.00 0.00 95 1003.8
20260508043648 38 177 0.0 0.0 0.00 0.00 0.00 94 1004.0
20260508043146 38 163 1.0 2.0 0.00 0.00 0.00 94 1003.8
20260508042643 38 185 0.0 0.0 0.00 0.00 0.00 94 1003.9
20260508042140 38 242 1.0 1.0 0.00 0.00 0.00 94 1003.8
20260508041636 39 233 0.0 1.0 0.00 0.00 0.00 94 1003.7
20260508041133 39 282 1.0 2.0 0.00 0.00 0.00 94 1003.8
20260508040629 38 173 2.0 2.0 0.00 0.00 0.00 94 1003.6
20260508040127 38 170 0.0 1.0 0.00 0.01 0.01 94 1003.6
20260508035624 38 178 1.0 2.0 0.00 0.01 0.01 94 1003.6
20260508035122 38 231 1.0 2.0 0.00 0.01 0.01 94 1003.6
20260508034618 39 216 0.0 2.0 0.00 0.01 0.01 94 1003.5
20260508034115 39 250 2.0 2.0 0.00 0.01 0.01 93 1003.6
20260508033613 39 182 1.0 1.0 0.00 0.01 0.01 93 1003.5
20260508033111 39 249 2.0 2.0 0.00 0.01 0.01 93 1003.3
20260508032607 39 234 1.0 2.0 0.00 0.01 0.01 93 1003.2
20260508032105 39 200 0.0 1.0 0.00 0.01 0.01 92 1003.3
20260508031602 40 158 2.0 2.0 0.00 0.01 0.01 92 1003.3
20260508031057 40 281 2.0 2.0 0.00 0.01 0.01 92 1003.3
20260508030554 40 300 1.0 2.0 0.00 0.01 0.01 92 1003.2
20260508030052 40 171 0.0 1.0 0.00 0.01 0.01 92 1003.1
20260508025548 40 178 0.0 1.0 0.00 0.01 0.01 92 1003.1
20260508025045 40 237 1.0 1.0 0.00 0.01 0.01 91 1002.9
20260508024541 41 261 1.0 1.0 0.00 0.01 0.01 91 1003.0
20260508024039 41 181 1.0 2.0 0.00 0.01 0.01 91 1002.9
20260508023535 41 167 1.0 2.0 0.00 0.01 0.01 90 1002.9
20260508023032 41 234 1.0 2.0 0.00 0.01 0.01 90 1003.0
20260508022528 42 286 0.0 3.0 0.00 0.01 0.01 90 1002.6
20260508022025 42 178 1.0 1.0 0.00 0.01 0.01 89 1002.6
20260508021521 42 213 0.0 1.0 0.00 0.01 0.01 89 1002.5
20260508021017 43 257 1.0 2.0 0.00 0.01 0.01 88 1002.5
20260508020515 43 251 1.0 2.0 0.00 0.01 0.01 88 1002.3
20260508020012 43 299 2.0 2.0 0.00 0.01 0.01 88 1002.3
20260508015510 43 240 0.0 1.0 0.00 0.01 0.01 87 1002.3
20260508015006 43 201 1.0 2.0 0.00 0.01 0.01 87 1002.4
20260508014503 43 251 3.0 3.0 0.00 0.01 0.01 87 1002.3
20260508013959 44 202 0.0 2.0 0.00 0.01 0.01 87 1002.2
20260508013455 44 231 1.0 2.0 0.00 0.01 0.01 87 1002.0
20260508012953 44 184 0.0 0.0 0.00 0.01 0.01 88 1002.1
20260508012449 44 202 0.0 0.0 0.00 0.01 0.01 87 1002.0
20260508011947 45 54 1.0 2.0 0.00 0.01 0.01 87 1001.7
20260508011445 45 304 0.0 0.0 0.00 0.01 0.01 86 1001.8
20260508010942 46 188 0.0 0.0 0.00 0.01 0.01 85 1001.9
20260508010439 46 166 0.0 0.0 0.00 0.01 0.01 85 1001.8
20260508005936 47 158 0.0 1.0 0.00 0.01 0.01 84 1001.6
20260508005433 47 209 1.0 1.0 0.00 0.01 0.01 83 1001.6
20260508004929 48 173 0.0 2.0 0.00 0.01 0.01 82 1001.6
20260508004425 48 240 1.0 1.0 0.00 0.01 0.01 76 1001.5
20260508003922 49 328 2.0 3.0 0.00 0.01 0.01 79 1001.3
20260508003419 51 249 1.0 2.0 0.00 0.01 0.01 78 1001.4
20260508002916 51 250 3.0 4.0 0.00 0.01 0.01 72 1001.2
20260508002413 52 182 2.0 3.0 0.00 0.01 0.01 73 1001.3
20260508001909 52 129 4.0 7.0 0.00 0.01 0.01 68 1001.3
20260508001405 51 262 3.0 4.0 0.00 0.01 0.01 68 1001.3
20260508000902 52 240 0.0 6.0 0.00 0.01 0.01 77 1001.2
20260508000358 51 273 4.0 8.0 0.00 0.01 0.01 75 1000.9
20260507235855 53 227 1.0 3.0 0.00 0.01 0.01 66 1000.8
20260507235352 53 238 2.0 4.0 0.00 0.01 0.01 72 1000.8
20260507234849 54 131 2.0 3.0 0.00 0.01 0.01 64 1000.8
20260507234346 53 242 4.0 9.0 0.00 0.01 0.01 64 1000.7
20260507233842 53 266 2.0 8.0 0.00 0.01 0.01 64 1000.6
20260507233339 53 249 3.0 6.0 0.00 0.01 0.01 67 1000.6
20260507232838 53 291 1.0 6.0 0.00 0.01 0.01 71 1000.5
20260507232334 54 223 1.0 4.0 0.00 0.01 0.01 65 1000.4
20260507231832 53 252 5.0 7.0 0.00 0.01 0.01 68 1000.2
20260507231328 53 265 2.0 3.0 0.00 0.01 0.01 69 1000.4
20260507230824 54 75 0.0 1.0 0.00 0.01 0.01 63 1000.3
20260507230322 55 145 0.0 1.0 0.00 0.01 0.01 62 1000.3
20260507225821 55 156 3.0 9.0 0.00 0.01 0.01 61 1000.3
20260507225318 55 221 1.0 2.0 0.00 0.01 0.01 64 1000.1
20260507224814 55 311 1.0 2.0 0.00 0.01 0.01 62 1000.2
20260507224311 56 133 1.0 1.0 0.00 0.01 0.01 65 1000.2
20260507223807 56 208 0.0 4.0 0.00 0.01 0.01 62 1000.1
20260507223303 56 96 0.0 2.0 0.00 0.01 0.01 60 1000.1
20260507222801 57 177 0.0 7.0 0.00 0.01 0.01 59 1000.2
20260507222256 58 203 2.0 7.0 0.00 0.01 0.01 58 999.9
20260507221754 58 288 2.0 6.0 0.00 0.01 0.01 58 999.8
20260507221250 58 79 2.0 4.0 0.00 0.01 0.01 60 1000.1
20260507220746 58 277 2.0 8.0 0.00 0.01 0.01 59 999.9
20260507220245 59 233 3.0 7.0 0.00 0.01 0.01 60 999.9
20260507215740 59 133 1.0 4.0 0.00 0.01 0.01 59 1000.0
20260507215238 59 256 4.0 4.0 0.00 0.01 0.01 56 999.8
20260507214735 56 134 9.0 11.0 0.00 0.01 0.01 59 999.8
20260507214233 56 134 2.0 4.0 0.00 0.01 0.01 61 999.8
20260507213727 58 133 3.0 3.0 0.00 0.01 0.01 61 999.8
20260507213225 57 129 2.0 4.0 0.00 0.01 0.01 64 999.7
20260507212721 56 185 4.0 7.0 0.00 0.01 0.01 63 999.5
20260507212218 58 184 4.0 13.0 0.00 0.01 0.01 61 999.5
20260507211715 58 135 6.0 11.0 0.00 0.01 0.01 60 999.4
20260507211210 58 143 6.0 8.0 0.00 0.01 0.01 61 999.6
20260507210708 58 294 0.0 8.0 0.00 0.01 0.01 60 999.4
20260507210205 58 142 2.0 4.0 0.00 0.01 0.01 63 999.6
20260507205701 59 163 4.0 6.0 0.00 0.01 0.01 61 999.5
20260507205158 57 228 4.0 6.0 0.00 0.01 0.01 66 999.5
20260507204654 58 153 5.0 8.0 0.00 0.01 0.01 64 999.5
20260507204152 57 137 4.0 10.0 0.00 0.01 0.01 64 999.6
20260507203650 60 151 10.0 14.0 0.00 0.01 0.01 60 999.6
20260507203147 59 37 5.0 7.0 0.00 0.01 0.01 61 999.7
20260507202642 60 177 5.0 8.0 0.00 0.01 0.01 64 999.5
20260507202139 58 152 4.0 4.0 0.00 0.01 0.01 64 999.4
20260507201634 58 156 2.0 4.0 0.00 0.01 0.01 67 999.4
20260507201131 59 277 5.0 7.0 0.00 0.01 0.01 63 999.0
20260507200627 59 159 7.0 10.0 0.00 0.01 0.01 66 999.2
20260507200123 59 227 6.0 9.0 0.00 0.01 0.01 64 999.0
20260507195620 58 213 5.0 7.0 0.00 0.01 0.01 66 999.2
20260507195117 57 189 3.0 7.0 0.00 0.01 0.01 67 999.5
20260507194614 58 121 3.0 6.0 0.00 0.01 0.01 66 999.5
20260507194109 59 275 1.0 6.0 0.00 0.01 0.01 68 999.6
20260507193607 59 173 2.0 9.0 0.00 0.01 0.01 68 999.6
20260507193103 60 249 4.0 9.0 0.00 0.01 0.01 66 999.7
20260507192600 60 137 5.0 8.0 0.00 0.01 0.01 67 999.8
20260507192057 60 182 4.0 8.0 0.00 0.01 0.01 64 1000.0
20260507191552 58 279 4.0 11.0 0.00 0.01 0.01 72 999.9
20260507191049 59 135 4.0 6.0 0.00 0.01 0.01 66 999.8
20260507190547 59 150 3.0 7.0 0.00 0.01 0.01 67 999.9
20260507190045 58 253 3.0 8.0 0.00 0.01 0.01 68 1000.0
20260507185543 58 236 3.0 7.0 0.00 0.01 0.01 69 1000.1
20260507185039 59 136 6.0 9.0 0.00 0.01 0.01 68 1000.2
20260507184538 60 152 6.0 9.0 0.00 0.01 0.01 67 999.9
20260507184035 60 147 2.0 3.0 0.00 0.01 0.01 66 1000.0
20260507183531 60 303 1.0 6.0 0.00 0.01 0.01 68 1000.2
20260507183028 59 154 6.0 8.0 0.00 0.01 0.01 68 1000.2
20260507182525 58 131 0.0 6.0 0.00 0.01 0.01 70 999.9
20260507182021 58 144 3.0 6.0 0.00 0.01 0.01 68 1000.2
20260507181518 58 195 1.0 4.0 0.00 0.01 0.01 71 999.9
20260507181014 58 159 5.0 7.0 0.00 0.01 0.01 71 999.9
20260507180510 58 126 4.0 7.0 0.00 0.01 0.01 69 1000.0
20260507180007 57 104 0.0 2.0 0.00 0.01 0.01 77 1000.1
20260507175504 57 235 3.0 7.0 0.00 0.01 0.01 74 1000.1
20260507175001 57 229 3.0 8.0 0.00 0.01 0.01 74 1000.1
20260507174458 56 177 2.0 3.0 0.00 0.01 0.01 74 1000.1
20260507173956 56 240 1.0 2.0 0.00 0.01 0.01 76 1000.2
20260507173453 55 176 1.0 7.0 0.00 0.01 0.01 75 1000.2
20260507172949 55 273 2.0 4.0 0.00 0.01 0.01 76 1000.3
20260507172446 54 76 3.0 4.0 0.00 0.01 0.01 77 1000.5
20260507171942 54 203 6.0 8.0 0.00 0.01 0.01 80 1000.5
20260507171438 54 138 3.0 4.0 0.00 0.01 0.01 78 1000.5
20260507170936 54 251 2.0 6.0 0.00 0.01 0.01 79 1000.5
20260507170432 54 250 3.0 4.0 0.00 0.01 0.01 78 1000.5
20260507165928 53 231 2.0 2.0 0.00 0.01 0.01 82 1000.7
20260507165425 53 201 2.0 3.0 0.00 0.01 0.01 83 1000.8
20260507164920 53 261 0.0 2.0 0.00 0.01 0.01 81 1000.9
20260507164418 53 164 1.0 2.0 0.00 0.01 0.01 84 1000.9
20260507163915 52 206 2.0 3.0 0.00 0.01 0.01 83 1000.9
20260507163412 52 148 3.0 6.0 0.00 0.01 0.01 83 1001.2
20260507162909 53 139 3.0 4.0 0.00 0.01 0.01 84 1001.1
20260507162404 52 236 0.0 2.0 0.00 0.01 0.01 85 1001.2
20260507161902 52 308 3.0 3.0 0.00 0.01 0.01 86 1001.1
20260507161358 52 311 2.0 3.0 0.00 0.01 0.01 87 1001.2
20260507160855 52 137 2.0 3.0 0.00 0.01 0.01 86 1001.1
20260507160350 52 325 2.0 2.0 0.00 0.01 0.01 86 1001.2
20260507155847 52 257 1.0 3.0 0.00 0.01 0.01 87 1001.2
20260507155342 52 161 0.0 2.0 0.00 0.01 0.01 86 1001.3
20260507154839 51 219 2.0 4.0 0.00 0.01 0.01 88 1001.3
20260507154337 51 152 1.0 1.0 0.00 0.01 0.01 89 1001.4
20260507153834 51 261 3.0 4.0 0.00 0.01 0.01 91 1001.5
20260507153330 51 147 1.0 2.0 0.00 0.01 0.01 91 1001.5
20260507152827 50 258 2.0 2.0 0.00 0.01 0.01 90 1001.7
20260507152323 50 165 0.0 4.0 0.00 0.01 0.01 90 1001.4
20260507151819 51 166 0.0 1.0 0.00 0.01 0.01 89 1001.7
20260507151315 51 166 3.0 3.0 0.00 0.01 0.01 89 1001.6
20260507150812 51 128 1.0 2.0 0.00 0.01 0.01 89 1001.4
20260507150309 50 222 2.0 3.0 0.00 0.01 0.01 87 1001.4
20260507145805 50 176 1.0 1.0 0.00 0.01 0.01 89 1001.5
20260507145306 50 198 1.0 2.0 0.00 0.01 0.01 90 1001.5
20260507144759 50 181 0.0 2.0 0.00 0.01 0.01 89 1001.6
20260507144256 50 307 2.0 2.0 0.00 0.01 0.01 90 1001.6
20260507143752 50 151 1.0 2.0 0.00 0.01 0.01 92 1001.6
20260507143250 50 123 0.0 1.0 0.00 0.01 0.01 91 1001.5
20260507142746 50 256 2.0 2.0 0.00 0.01 0.01 91 1001.4
20260507142243 49 151 0.0 1.0 0.00 0.01 0.01 91 1001.7
20260507141739 49 165 2.0 2.0 0.00 0.01 0.01 92 1001.8
20260507141236 49 156 0.0 1.0 0.00 0.01 0.01 94 1001.7
20260507140732 49 130 0.0 0.0 0.00 0.01 0.01 94 1001.7
20260507140230 49 246 1.0 1.0 0.00 0.01 0.01 95 1001.7
20260507135727 49 293 0.0 1.0 0.00 0.01 0.01 95 1001.8
20260507135224 48 254 0.0 2.0 0.00 0.01 0.01 94 1001.9
20260507134720 49 166 1.0 2.0 0.00 0.01 0.01 95 1001.9
20260507134216 49 233 0.0 1.0 0.07 0.01 0.01 96 1002.2
20260507133713 49 226 1.0 1.0 0.07 0.01 0.01 96 1002.4
20260507133210 49 263 1.0 3.0 0.00 0.00 0.00 96 1002.2
20260507132707 49 145 1.0 3.0 0.00 0.00 0.00 95 1002.2
20260507132203 49 72 0.0 2.0 0.00 0.00 0.00 95 1001.9
20260507131700 49 66 1.0 2.0 0.00 0.00 0.00 95 1002.2
20260507131158 49 176 1.0 3.0 0.00 0.00 0.00 95 1002.3
20260507130654 49 155 0.0 3.0 0.00 0.00 0.00 94 1002.1
20260507130152 49 124 1.0 3.0 0.00 0.00 0.00 94 1002.0
20260507125651 49 122 0.0 3.0 0.00 0.00 0.00 94 1002.0
20260507125148 50 156 1.0 2.0 0.00 0.00 0.00 95 1001.9
20260507124644 50 164 0.0 3.0 0.00 0.00 0.00 95 1001.9
20260507124142 50 213 2.0 2.0 0.00 0.00 0.00 94 1001.8
20260507123640 50 244 2.0 2.0 0.00 0.00 0.00 95 1001.8
20260507123137 50 161 2.0 3.0 0.00 0.00 0.00 95 1001.9
20260507122632 50 138 4.0 7.0 0.00 0.00 0.00 95 1002.0
20260507122127 50 168 2.0 3.0 0.00 0.00 0.00 95 1001.7
20260507121623 50 271 1.0 2.0 0.00 0.00 0.00 95 1001.7
20260507121114 50 223 2.0 3.0 0.00 0.00 0.00 95 1001.7
20260507120610 51 234 1.0 2.0 0.00 0.00 0.00 95 1001.8
20260507120107 51 252 2.0 3.0 0.00 0.00 0.00 94 1001.8
20260507115603 51 239 0.0 1.0 0.00 0.00 0.00 94 1001.7
20260507115059 51 201 0.0 3.0 0.00 0.00 0.00 94 1001.6
20260507114555 51 149 1.0 2.0 0.00 0.00 0.00 94 1001.7
20260507114053 51 189 0.0 0.0 0.00 0.00 0.00 94 1001.7
20260507113549 51 152 0.0 1.0 0.00 0.00 0.00 94 1001.7
20260507113047 50 149 0.0 1.0 0.00 0.00 0.00 94 1001.6
20260507112545 51 252 1.0 1.0 0.00 0.00 0.00 95 1001.7
20260507112041 50 260 1.0 3.0 0.00 0.00 0.00 95 1001.5
20260507111538 51 182 0.0 2.0 0.00 0.00 0.00 95 1001.2
20260507111035 50 144 0.0 1.0 0.00 0.00 0.00 94 1001.4
20260507110531 51 209 1.0 2.0 0.00 0.00 0.00 95 1001.6
20260507110028 51 261 1.0 2.0 0.00 0.00 0.00 94 1001.3
20260507105525 51 321 0.0 1.0 0.00 0.00 0.00 94 1001.4
20260507105021 51 222 0.0 1.0 0.00 0.00 0.00 95 1001.1
20260507104519 51 216 1.0 2.0 0.00 0.00 0.00 95 1001.2
20260507104015 50 158 0.0 1.0 0.00 0.00 0.00 95 1001.1
20260507103511 50 238 1.0 2.0 0.00 0.00 0.00 95 1001.1
20260507103007 51 209 1.0 2.0 0.00 0.00 0.00 96 1001.1
20260507102504 51 242 1.0 2.0 0.00 0.00 0.00 96 1001.1
20260507102000 51 183 2.0 2.0 0.00 0.00 0.00 96 1000.9
20260507101456 51 248 2.0 3.0 0.00 0.00 0.00 96 1000.7
20260507100953 51 217 0.0 0.0 0.00 0.00 0.00 96 1000.7
20260507100450 51 147 0.0 0.0 0.00 0.00 0.00 95 1000.5
20260507095948 51 161 1.0 1.0 0.00 0.00 0.00 96 1000.5
20260507095445 51 264 0.0 3.0 0.00 0.00 0.00 96 1000.9
20260507094942 51 195 2.0 4.0 0.00 0.00 0.00 96 1000.9
20260507094438 51 263 1.0 2.0 0.00 0.00 0.00 96 1000.9
20260507093935 51 117 2.0 2.0 0.00 0.00 0.00 96 1000.9
20260507093433 51 117 2.0 2.0 0.00 0.00 0.00 96 1000.9
20260507092931 51 176 1.0 2.0 0.00 0.00 0.00 96 1000.9
20260507092427 51 217 0.0 2.0 0.00 0.00 0.00 96 1000.7
20260507091924 51 252 1.0 2.0 0.00 0.00 0.00 96 1001.1
20260507091420 51 279 1.0 2.0 0.00 0.00 0.00 96 1000.9
20260507090916 51 264 3.0 3.0 0.00 0.00 0.00 96 1001.1
20260507090412 51 192 0.0 1.0 0.00 0.00 0.00 96 1001.1
20260507085909 51 141 1.0 1.0 0.00 0.00 0.00 96 1000.8
20260507085406 51 159 1.0 2.0 0.00 0.00 0.00 96 1000.8
20260507084904 51 152 2.0 3.0 0.00 0.00 0.00 96 1000.8
20260507084400 52 216 0.0 2.0 0.00 0.00 0.00 96 1000.7
20260507083857 52 240 1.0 2.0 0.00 0.00 0.00 96 1000.6
20260507083353 52 228 0.0 1.0 0.00 0.00 0.00 95 1001.2
20260507082850 52 182 1.0 2.0 0.00 0.00 0.00 95 1000.9
20260507082345 52 137 2.0 3.0 0.00 0.00 0.00 95 1001.2
20260507081843 52 268 2.0 2.0 0.00 0.00 0.00 95 1001.4
20260507081339 52 174 2.0 3.0 0.00 0.00 0.00 95 1001.3
20260507080836 52 137 2.0 2.0 0.00 0.00 0.00 95 1001.6
20260507080332 52 235 1.0 2.0 0.00 0.00 0.00 94 1001.5
20260507075828 52 221 1.0 2.0 0.00 0.00 0.00 94 1001.1
20260507075324 52 148 1.0 7.0 0.00 0.00 0.00 94 1000.7
20260507074820 52 165 2.0 6.0 0.00 0.00 0.00 94 1000.8
20260507074318 52 146 2.0 3.0 0.00 0.00 0.00 94 1000.9
20260507073815 52 159 1.0 3.0 0.00 0.00 0.00 94 1001.1
20260507073312 52 243 1.0 2.0 0.00 0.00 0.00 94 1001.1